Flight Track Log - Related Links

Times and Time Zones

All times are in EDT time to prevent confusion due to time zone crossing. See the DAL5173 flight status page for this flight to view local times or setup timezone preferences in your user account.

Time Position Orientation Groundspeed Altitude Reporting Facility
EDT Latitude Longitude Course Direction KTS MPH feet Rate Location/Type
Wed 07:13:49 PM 35.8686 -78.8089 235° Southwest 187 215 1,400  Level Washington Center
Wed 07:15:03 PM 35.8336 -78.8714 235° Southwest 223 257 4,400 2,318 Climbing Washington Center
Wed 07:16:01 PM 35.8653 -78.9317 303° West 256 295 6,500 2,638 Climbing Washington Center
Wed 07:16:59 PM 35.9028 -79.0078 301° West 262 302 9,500 2,168 Climbing Washington Center
Wed 07:18:00 PM 35.9483 -79.0942 303° West 280 322 10,800 1,686 Climbing Washington Center
Wed 07:19:00 PM 36.0078 -79.2047 304° West 342 394 12,900 1,983 Climbing Washington Center
Wed 07:20:01 PM 36.0525 -79.3069 298° West 374 430 14,800 2,067 Climbing Washington Center
Wed 07:20:59 PM 36.1464 -79.3731 330° Northwest 363 418 17,000 1,916 Climbing Washington Center
Wed 07:22:00 PM 36.2303 -79.4286 332° Northwest 363 418 18,600 1,820 Climbing Washington Center
Wed 07:23:01 PM 36.3278 -79.5108 326° Northwest 376 433 20,700 1,750 Climbing Washington Center
Wed 07:24:00 PM 36.4147 -79.5900 324° Northwest 388 447 22,100 1,350 Climbing Washington Center
Wed 07:25:01 PM 36.5058 -79.6722 324° Northwest 400 460 23,400 1,261 Climbing Washington Center
Wed 07:25:59 PM 36.5867 -79.7542 321° Northwest 405 466 24,600 1,109 Climbing Washington Center
Wed 07:27:00 PM 36.6531 -79.8767 304° West 414 476 25,600 836 Climbing Washington Center
Wed 07:28:01 PM 36.7194 -80.0047 303° West 428 493 26,300 843 Climbing Washington Center
Wed 07:29:01 PM 36.7875 -80.1358 303° West 446 513 27,300 1,036 Climbing Washington Center
Wed 07:30:20 PM 36.8797 -80.3150 303° West 464 534 28,700 1,165 Climbing Atlanta Center
Wed 07:31:20 PM 36.9550 -80.4622 303° West 464 534 30,000 1,100 Climbing Atlanta Center
Wed 07:32:20 PM 37.0256 -80.5942 304° West 464 534 30,900 900 Climbing Atlanta Center
Wed 07:33:20 PM 37.1000 -80.7236 306° West 464 534 31,800 550 Climbing Atlanta Center
Wed 07:34:20 PM 37.2103 -80.7969 332° Northwest 448 516 32,000 85 Climbing Atlanta Center
Wed 07:35:41 PM 37.3703 -80.8797 338° Northwest 458 527 32,000  Level Indianapolis Center
Wed 07:36:43 PM 37.4675 -80.9708 323° Northwest 453 521 32,000  Level Indianapolis Center
Wed 07:37:45 PM 37.5564 -81.0853 314° West 466 536 32,000  Level Indianapolis Center
Wed 07:38:47 PM 37.6617 -81.2208 314° West 464 534 32,000  Level Indianapolis Center
Wed 07:39:48 PM 37.7589 -81.3239 320° Northwest 467 537 32,000  Level Indianapolis Center
Wed 07:40:50 PM 37.8497 -81.4389 315° West 465 535 32,000 290 Level Indianapolis Center
Wed 07:41:52 PM 37.9628 -81.5175 331° Northwest 467 537 32,600 968 Climbing Indianapolis Center
Wed 07:42:54 PM 38.0814 -81.5631 343° North 446 513 34,000 677 Climbing Indianapolis Center
Wed 07:43:56 PM 38.1997 -81.6083 343° North 442 509 34,000  Level Indianapolis Center
Wed 07:44:58 PM 38.3214 -81.6561 343° North 452 520 34,000 488 Level Indianapolis Center
Wed 07:45:59 PM 38.4669 -81.7181 342° North 456 525 35,000 488 Climbing Indianapolis Center
Wed 07:47:01 PM 38.5919 -81.7411 352° North 448 516 35,000  Level Indianapolis Center
Wed 07:48:03 PM 38.7208 -81.7528 356° North 453 521 35,000  Level Indianapolis Center
Wed 07:49:05 PM 38.8475 -81.7664 355° North 448 516 35,000  Level Indianapolis Center
Wed 07:50:07 PM 38.9725 -81.7803 355° North 449 517 35,000  Level Indianapolis Center
Wed 07:51:08 PM 39.0972 -81.7947 355° North 450 518 35,000  Level Indianapolis Center
Wed 07:52:10 PM 39.2197 -81.8089 355° North 442 509 35,000  Level Indianapolis Center
Wed 07:53:12 PM 39.3436 -81.8217 355° North 446 513 35,000  Level Indianapolis Center
Wed 07:54:14 PM 39.4658 -81.8356 355° North 442 509 35,000  Level Indianapolis Center
Wed 07:55:15 PM 39.5883 -81.8500 355° North 440 506 35,000  Level Indianapolis Center
Wed 07:56:17 PM 39.7361 -81.8675 355° North 441 507 35,000 -339 Level Indianapolis Center
Wed 07:57:19 PM 39.8564 -81.8881 353° North 438 504 34,300 -488 Descending Indianapolis Center
Wed 07:58:20 PM 39.9736 -81.9092 352° North 438 504 34,000 -146 Descending Indianapolis Center
Wed 07:59:22 PM 40.0967 -81.9317 352° North 442 509 34,000  Level Indianapolis Center
Wed 08:00:24 PM 40.2236 -81.9553 352° North 451 519 34,000 -732 Level Indianapolis Center
Wed 08:01:25 PM 40.3494 -81.9764 353° North 453 521 32,500 -1,610 Descending Indianapolis Center
Wed 08:02:27 PM 40.4725 -82.0022 351° North 446 513 30,700 -1,220 Descending Indianapolis Center
Wed 08:03:28 PM 40.5850 -82.0722 335° Northwest 442 509 30,000 -1,073 Descending Indianapolis Center
Wed 08:04:30 PM 40.7167 -82.1511 336° Northwest 442 509 28,500 -1,597 Descending Indianapolis Center
Wed 08:05:32 PM 40.8292 -82.2192 335° Northwest 440 506 26,700 -1,805 Descending Indianapolis Center
Wed 08:06:33 PM 40.9411 -82.2881 335° Northwest 438 504 24,800 -1,317 Descending Indianapolis Center
Wed 08:07:35 PM 41.0522 -82.3575 335° Northwest 437 503 24,000 -1,258 Descending Indianapolis Center
Wed 08:08:37 PM 41.1611 -82.4242 335° Northwest 427 491 22,200 -1,951 Descending Indianapolis Center
Wed 08:09:38 PM 41.2658 -82.4881 335° Northwest 414 476 20,000 -2,195 Descending Indianapolis Center
Wed 08:10:40 PM 41.3714 -82.5547 335° Northwest 413 475 17,700 -2,258 Descending Indianapolis Center
Wed 08:11:11 PM 41.4294 -82.5939 333° Northwest 408 470 16,500 -2,270 Descending Cleveland Center
Wed 08:11:54 PM 41.4997 -82.6375 335° Northwest 402 463 14,900 -2,097 Descending Cleveland Center
Wed 08:12:54 PM 41.5883 -82.6931 335° Northwest 392 451 12,900 -1,487 Descending Cleveland Center
Wed 08:13:51 PM 41.6789 -82.7489 335° Northwest 312 359 12,000 -610 Descending Cleveland Center
Wed 08:14:52 PM 41.7444 -82.8039 328° Northwest 264 304 11,700 -787 Descending Cleveland Center
Wed 08:15:53 PM 41.7972 -82.8839 312° West 295 339 10,400 -1,241 Descending Cleveland Center
Wed 08:16:48 PM 41.8350 -82.9661 302° West 281 323 9,300 -1,328 Descending Cleveland Center
Wed 08:17:55 PM 41.8728 -83.0539 300° West 223 257 7,700 -1,571 Descending Cleveland Center
Wed 08:18:54 PM 41.9006 -83.1219 299° West 246 283 6,000 -857 Descending Cleveland Center
Wed 08:19:54 PM 41.9181 -83.1839 291° West 233 268 6,000 -200 Level Cleveland Center
Wed 08:20:54 PM 41.9031 -83.2867 259° West 222 255 5,600 -451 Descending Cleveland Center
Wed 08:22:07 PM 41.8800 -83.3833 252° West 214 246 5,000 -257 Descending Cleveland Center
Wed 08:23:14 PM 41.8547 -83.4686 248° West 215 247 5,000 -469 Level Cleveland Center
Wed 08:24:15 PM 41.8697 -83.5389 286° West 201 231 4,000 -517 Descending Cleveland Center
Wed 08:25:10 PM 41.9172 -83.5550 346° North 186 214 4,000  Level Cleveland Center
Wed 08:26:18 PM 41.9683 -83.5183 28° Northeast 185 213 4,000  Level Cleveland Center
Wed 08:27:19 PM 42.0128 -83.4897 26° Northeast 181 208 4,000 -98 Level Cleveland Center
Wed 08:28:20 PM 42.0575 -83.4553 30° Northeast 184 212 3,800 -689 Descending Cleveland Center
Wed 08:29:21 PM 42.1042 -83.4211 29° Northeast 177 204 2,600 -974 Descending Cleveland Center
Wed 08:30:17 PM 42.1381 -83.3975 27° Northeast 139 160 1,900 -718 Descending Cleveland Center
Wed 08:31:18 PM 42.1719 -83.3708 30° Northeast 138 159 1,200 -689 Descending Cleveland Center

Login

Don't have an account? Register now (free) for customized features, flight alerts, and more!